Terminal Aerodrome Forecast
Issued by NWS

Home | Current Version | Previous Version | Text Only | Print | Product List | Glossary On
Versions: 1 2 3 4 5 6 7 8 9 10 11 12 13 14 15 16 17
000
FTUS43 KAPX 040118 AAA
TAFTVC
TAF AMD
KTVC 040118Z 0401/0424 VRB03KT P6SM -SHRA BKN015 OVC028
     FM040300 VRB03KT P6SM OVC024
     FM041400 19004KT P6SM OVC030
     FM041800 15006KT 1 1/2SM -SN OVC009=

USA.gov is the U.S. government's official web portal to all federal, state and local government web resources and services.